STARLINK-11508 [DTC] (62515 NORAD) Tracking and Keplerian Element Data

This shows tracking and keplerian element data for the satellite.

Feedback or suggestion? Click here.




ElementValue
Catalog62515
NameSTARLINK-11508 [DTC]
Epoch Orbit542
Epoch Day35.12951505
Epoch Year2025
RAAN314.1843
Inclination42.9978
Eccentricity0.000112
Argument of Perigee304.0169
Mean Anonmoly56.0595
Mean Motion15.77856922
Decay Rate2.618E-05
L11 62515U 25004E 25035.12951505 .00002618 00000+0 17899-4 0 9997
L22 62515 42.9978 314.1843 0001120 304.0169 56.0595 15.77856922 5424



Live tracking and technical data element details for STARLINK-11508 [DTC] (NORAD 62515). STARLINK-11508 [DTC] can be tracked NOW for your location showing map with azimuth and elevation plus other details from your city location.







IsCatalogInMostPopularTable: catalog: 62515, numindb: 21
Update: records affected: 1



GetName: 62515 STARLINK-11508 [DTC]

Hit Count: updated at: Mon, 19 May 2025 03:23:25 GMT